Flight Track Log - Related Links

Times and Time Zones

All times are in EDT time to prevent confusion due to time zone crossing. See the BAW826 flight status page for this flight to view local times or setup timezone preferences in your user account.

Time Position Orientation Groundspeed Altitude Reporting Facility
EDT Latitude Longitude Course Direction KTS MPH feet Rate Location/Type
Thu 05:31:27 PM 51.4760 -0.4710 270° West 400  Level FlightAware ADS-B
Thu 05:34:00 PM 51.5963 -0.7932 301° West  Level Estimated
Thu 05:34:17 PM 51.4760 -0.4760 301° West 400  Level FlightAware ADS-B
Thu 05:36:00 PM 51.5572 -0.6927 301° West  Level Estimated
Thu 05:39:00 PM 51.5768 -0.7484 301° West  Level Estimated
Thu 05:39:37 PM 51.4760 -0.4800 301° West 400  Level FlightAware ADS-B
Thu 05:43:00 PM 51.5572 -0.6986 301° West  Level Estimated
Thu 05:44:00 PM 51.6043 -0.8252 301° West  Level Estimated
Thu 05:44:57 PM 51.4760 -0.4830 301° West 400  Level FlightAware ADS-B
Thu 05:50:00 PM 51.5808 -0.7668 301° West  Level Estimated
Thu 05:51:00 PM 51.6279 -0.8935 301° West  Level Estimated
Thu 05:52:00 PM 51.6749 -1.0204 301° West  Level Estimated
Thu 05:53:00 PM 51.7217 -1.1476 301° West  Level Estimated
Thu 05:56:38 PM 51.4777 -0.4433 91° East 156 180 1,500  Level FlightAware ADS-B
Thu 05:56:54 PM 51.4775 -0.4225 91° East 170 196 500 1,909 Descending FlightAware UK
Thu 05:57:00 PM 51.4776 -0.4168 91° East 174 200 2,200 7,600 Climbing FlightAware ADS-B
Thu 05:57:09 PM 51.4771 -0.4032 93° East 186 214 2,400 1,385 Climbing FlightAware ADS-B
Thu 05:57:13 PM 51.4765 -0.3992 103° East 190 219 2,500 1,500 Climbing FlightAware ADS-B
Thu 05:57:17 PM 51.4754 -0.3937 108° East 200 230 2,600 1,500 Climbing FlightAware ADS-B
Thu 05:57:21 PM 51.4729 -0.3873 122° Southeast 204 235 2,700 1,333 Climbing FlightAware ADS-B
Thu 05:57:26 PM 51.4701 -0.3827 134° Southeast 211 243 2,800 1,500 Climbing FlightAware ADS-B
Thu 05:57:29 PM 51.4678 -0.3798 142° Southeast 215 247 2,900 2,000 Climbing FlightAware ADS-B
Thu 05:57:32 PM 51.4654 -0.3772 146° Southeast 221 254 3,000 2,571 Climbing FlightAware ADS-B
Thu 05:57:36 PM 51.4615 -0.3746 157° South 225 259 3,200 2,571 Climbing FlightAware ADS-B
Thu 05:57:39 PM 51.4585 -0.3729 161° South 232 267 3,300 1,714 Climbing FlightAware ADS-B
Thu 05:57:43 PM 51.4532 -0.3716 171° South 238 274 3,400 2,250 Climbing FlightAware ADS-B
Thu 05:57:47 PM 51.4497 -0.3715 179° South 244 281 3,600 2,250 Climbing FlightAware ADS-B
Thu 05:57:51 PM 51.4452 -0.3723 186° South 248 285 3,700 2,571 Climbing FlightAware ADS-B
Thu 05:57:54 PM 51.4418 -0.3739 196° South 252 290 3,900 3,429 Climbing FlightAware ADS-B
Thu 05:57:58 PM 51.4365 -0.3775 203° Southwest 256 295 4,100 3,333 Climbing FlightAware ADS-B
Thu 05:58:03 PM 51.4323 -0.3814 210° Southwest 259 298 4,400 3,333 Climbing FlightAware ADS-B
Thu 05:58:07 PM 51.4284 -0.3860 216° Southwest 261 300 4,600 3,789 Climbing FlightAware ADS-B
Thu 05:58:22 PM 51.4142 -0.4045 219° Southwest 265 305 5,600 4,071 Climbing FlightAware ADS-B
Thu 05:58:35 PM 51.4021 -0.4211 221° Southwest 269 310 6,500 3,789 Climbing FlightAware ADS-B
Thu 05:58:41 PM 51.3965 -0.4293 223° Southwest 273 314 6,800 3,000 Climbing FlightAware ADS-B
Thu 05:58:45 PM 51.3933 -0.4353 230° Southwest 275 316 7,000 3,333 Climbing FlightAware ADS-B
Thu 05:58:50 PM 51.3898 -0.4442 238° Southwest 279 321 7,300 4,500 Climbing FlightAware ADS-B
Thu 05:58:53 PM 51.3882 -0.4498 245° Southwest 281 323 7,600 5,000 Climbing FlightAware ADS-B
Thu 05:58:56 PM 51.3868 -0.4557 249° West 282 325 7,800 4,000 Climbing FlightAware ADS-B
Thu 05:58:59 PM 51.3857 -0.4638 258° West 284 327 8,000 4,000 Climbing FlightAware ADS-B
Thu 05:59:02 PM 51.3854 -0.4702 266° West 285 328 8,200 3,429 Climbing FlightAware ADS-B
Thu 05:59:06 PM 51.3852 -0.4763 267° West 285 328 8,400 3,750 Climbing FlightAware ADS-B
Thu 05:59:10 PM 51.3858 -0.4870 275° West 286 329 8,700 4,000 Climbing FlightAware ADS-B
Thu 05:59:15 PM 51.3874 -0.4972 284° West 290 334 9,000 3,000 Climbing FlightAware ADS-B
Thu 05:59:26 PM 51.3917 -0.5181 288° West 300 345 9,500 1,846 Climbing FlightAware ADS-B
Thu 05:59:41 PM 51.3991 -0.5504 290° West 322 371 9,800 800 Climbing FlightAware ADS-B
Thu 05:59:56 PM 51.4072 -0.5852 290° West 339 390 9,900 387 Climbing FlightAware ADS-B
Thu 06:00:12 PM 51.4159 -0.6232 290° West 344 396 10,000 -2,471 Climbing FlightAware ADS-B
Thu 06:00:30 PM 51.4265 -0.6695 290° West 330 380 8,500  Descending FlightAware UK
Thu 06:00:42 PM 51.4321 -0.6950 290° West 344 396 10,000  Climbing FlightAware ADS-B
Thu 06:01:00 PM 51.4428 -0.7416 290° West 332 382 8,500  Descending FlightAware UK
Thu 06:01:13 PM 51.4487 -0.7690 290° West 343 395 10,000 3,214 Climbing FlightAware ADS-B
Thu 06:01:28 PM 51.4568 -0.8048 290° West 342 394 10,000 -2,057 Level FlightAware ADS-B
Thu 06:01:48 PM 51.4684 -0.8561 290° West 350 403 8,800 1,548 Descending FlightAware UK
Thu 06:01:59 PM 51.4739 -0.8814 290° West 367 422 10,800 3,000 Climbing FlightAware ADS-B
Thu 06:02:18 PM 51.4858 -0.9338 290° West 362 417 10,300 3,000 Descending FlightAware UK
Thu 06:02:29 PM 51.4912 -0.9592 290° West 377 434 12,300 2,000 Climbing FlightAware ADS-B
Thu 06:02:48 PM 51.5034 -1.0135 290° West 366 421 11,300 1,355 Descending FlightAware UK
Thu 06:03:00 PM 51.5094 -1.0412 290° West 381 438 13,000 400 Climbing FlightAware ADS-B
Thu 06:03:18 PM 51.5210 -1.0921 290° West 370 426 11,500  Descending FlightAware UK
Thu 06:03:31 PM 51.5280 -1.1236 290° West 380 437 13,000  Climbing FlightAware ADS-B
Thu 06:03:48 PM 51.5390 -1.1717 290° West 368 423 11,500  Descending FlightAware UK
Thu 06:03:56 PM 51.5431 -1.1900 290° West 382 440 13,000 500 Climbing FlightAware ADS-B
Thu 06:04:12 PM 51.5533 -1.2356 290° West 370 426 11,700 1,600 Descending FlightAware UK
Thu 06:04:26 PM 51.5599 -1.2707 290° West 386 444 13,800 2,400 Climbing FlightAware ADS-B
Thu 06:04:42 PM 51.5693 -1.3174 290° West 378 435 12,900 2,903 Descending FlightAware UK
Thu 06:04:57 PM 51.5769 -1.3554 290° West 388 447 15,300 3,000 Climbing FlightAware ADS-B
Thu 06:05:12 PM 51.5859 -1.3997 290° West 382 440 14,400 2,323 Descending FlightAware UK
Thu 06:05:28 PM 51.5944 -1.4415 290° West 401 461 16,500 2,167 Climbing FlightAware ADS-B
Thu 06:05:48 PM 51.6070 -1.5018 290° West 392 451 15,700 2,323 Descending FlightAware UK
Thu 06:05:59 PM 51.6129 -1.5303 290° West 409 471 17,700 2,400 Climbing FlightAware ADS-B
Thu 06:06:18 PM 51.6248 -1.5880 290° West 398 458 16,900 2,600 Descending FlightAware UK
Thu 06:06:29 PM 51.6308 -1.6175 290° West 415 478 19,000 2,600 Climbing FlightAware ADS-B
Thu 06:06:48 PM 51.6429 -1.6757 290° West 402 463 18,200 2,129 Descending FlightAware UK
Thu 06:07:00 PM 51.6493 -1.7089 290° West 422 486 20,100 2,069 Climbing FlightAware ADS-B
Thu 06:07:17 PM 51.6609 -1.7647 290° West 408 470 19,200 2,000 Descending FlightAware UK
Thu 06:07:30 PM 51.6682 -1.8022 290° West 431 496 21,100 2,323 Climbing FlightAware ADS-B
Thu 06:07:48 PM 51.6794 -1.8565 290° West 420 483 20,400 2,710 Descending FlightAware UK
Thu 06:08:01 PM 51.6869 -1.8930 290° West 428 493 22,500 1,862 Climbing FlightAware ADS-B
Thu 06:08:17 PM 51.6979 -1.9465 290° West 420 483 21,300 1,200 Descending FlightAware UK
Thu 06:08:31 PM 51.7061 -1.9881 290° West 440 506 23,100 1,548 Climbing FlightAware ADS-B
Thu 06:08:48 PM 51.7168 -2.0408 290° West 436 502 22,100 2,516 Descending FlightAware UK
Thu 06:09:02 PM 51.7248 -2.0815 290° West 434 499 24,400 2,897 Climbing FlightAware ADS-B
Thu 06:09:17 PM 51.7351 -2.1318 290° West 432 497 23,500 2,000 Descending FlightAware UK
Thu 06:09:32 PM 51.7436 -2.1761 290° West 435 501 25,400 1,000 Climbing FlightAware ADS-B
Thu 06:09:47 PM 51.7534 -2.2240 290° West 442 509 24,000 968 Descending FlightAware UK
Thu 06:10:03 PM 51.7624 -2.2705 290° West 449 517 25,900 1,500 Climbing FlightAware ADS-B
Thu 06:10:23 PM 51.7760 -2.3390 290° West 452 520 24,900 1,548 Descending FlightAware UK
Thu 06:10:34 PM 51.7820 -2.3695 290° West 451 519 26,700 1,400 Climbing FlightAware ADS-B
Thu 06:10:53 PM 51.7948 -2.4339 290° West 456 525 25,600 1,355 Descending FlightAware UK
Thu 06:11:05 PM 51.8021 -2.4692 290° West 460 529 27,400 4,200 Climbing FlightAware ADS-B
Thu 06:11:23 PM 51.8162 -2.5271 292° West 466 536 27,700 -1,667 Climbing FlightAware ADS-B
Thu 06:11:41 PM 51.8339 -2.5884 292° West 462 532 26,400 692 Descending FlightAware UK
Thu 06:11:49 PM 51.8409 -2.6095 292° West 478 550 28,000 1,250 Climbing FlightAware ADS-B
Thu 06:12:05 PM 51.8604 -2.6618 292° West 460 529 26,900 -1,235 Descending FlightAware UK
Thu 06:12:23 PM 51.8819 -2.7165 302° West 462 532 27,300 4,452 Climbing FlightAware UK
Thu 06:12:36 PM 51.8965 -2.7526 302° West 480 552 29,200 1,800 Climbing FlightAware ADS-B
Thu 06:12:53 PM 51.9185 -2.8068 302° West 460 529 28,200 1,500 Descending FlightAware UK
Thu 06:13:08 PM 51.9348 -2.8484 302° West 477 549 30,000 600 Climbing FlightAware ADS-B
Thu 06:13:23 PM 51.9543 -2.8968 302° West 458 527 28,500 -2,727 Descending FlightAware UK
Thu 06:13:41 PM 51.9755 -2.9510 302° West 458 527 28,500 2,813 Level FlightAware UK
Thu 06:13:55 PM 51.9901 -2.9904 302° West 478 550 30,000  Climbing FlightAware ADS-B
Thu 06:14:11 PM 52.0104 -3.0419 302° West 460 529 28,500  Descending FlightAware UK
Thu 06:14:25 PM 52.0251 -3.0813 302° West 476 548 30,000  Climbing FlightAware ADS-B
Thu 06:14:41 PM 52.0451 -3.1322 302° West 460 529 28,500  Descending FlightAware UK
Thu 06:14:57 PM 52.0625 -3.1781 302° West 477 549 30,000  Climbing FlightAware ADS-B
Thu 06:15:16 PM 52.0869 -3.2404 302° West 460 529 28,500  Descending FlightAware UK
Thu 06:15:28 PM 52.0997 -3.2747 302° West 476 548 30,000  Climbing FlightAware ADS-B
Thu 06:15:47 PM 52.1220 -3.3319 302° West 460 529 28,500  Descending FlightAware UK
Thu 06:15:59 PM 52.1344 -3.3656 302° West 476 548 30,000  Climbing FlightAware ADS-B
Thu 06:16:16 PM 52.1564 -3.4224 302° West 460 529 28,500  Descending FlightAware UK
Thu 06:16:30 PM 52.1703 -3.4600 302° West 476 548 30,000  Climbing FlightAware ADS-B
Thu 06:16:46 PM 52.1910 -3.5136 302° West 460 529 28,500 -2,824 Descending FlightAware UK
Thu 06:17:04 PM 52.2119 -3.5684 302° West 460 529 28,400 -167 Descending FlightAware UK
Thu 06:17:22 PM 52.2327 -3.6233 302° West 460 529 28,400 3,429 Level FlightAware UK
Thu 06:17:32 PM 52.2380 -3.6370 302° West 477 549 30,000  Climbing FlightAware ADS-B
Thu 06:17:52 PM 52.2672 -3.7144 302° West 460 529 28,400 -2,526 Descending FlightAware UK
Thu 06:18:10 PM 52.2879 -3.7697 302° West 460 529 28,400 4,800 Level FlightAware UK
Thu 06:18:12 PM 52.2850 -3.7620 302° West 477 549 30,000  Climbing FlightAware ADS-B
Thu 06:18:28 PM 52.3085 -3.8249 302° West 460 529 28,400 -2,647 Descending FlightAware UK
Thu 06:18:46 PM 52.3292 -3.8801 302° West 460 529 28,500 -167 Climbing FlightAware UK
Thu 06:19:04 PM 52.3498 -3.9353 301° West 458 527 28,300 -833 Descending FlightAware UK
Thu 06:19:22 PM 52.3703 -3.9898 302° West 458 527 28,000 3,130 Descending FlightAware UK
Thu 06:19:27 PM 52.3710 -3.9920 302° West 476 548 29,500 -1,000 Climbing FlightAware ADS-B
Thu 06:19:46 PM 52.3977 -4.0636 302° West 460 529 27,600 -3,568 Descending FlightAware UK
Thu 06:20:04 PM 52.4181 -4.1195 301° West 462 532 27,300 -1,000 Descending FlightAware UK
Thu 06:20:22 PM 52.4390 -4.1756 301° West 462 532 27,000 -1,000 Descending FlightAware UK
Thu 06:20:40 PM 52.4600 -4.2320 301° West 460 529 26,700 -1,000 Descending FlightAware UK
Thu 06:20:58 PM 52.4804 -4.2868 301° West 462 532 26,400 -1,000 Descending FlightAware UK
Thu 06:21:16 PM 52.5008 -4.3417 301° West 458 527 26,100 -833 Descending FlightAware UK
Thu 06:21:34 PM 52.5211 -4.3966 301° West 462 532 25,900 -833 Descending FlightAware UK
Thu 06:21:52 PM 52.5408 -4.4503 301° West 458 527 25,600 -1,000 Descending FlightAware UK
Thu 06:22:10 PM 52.5605 -4.5045 301° West 458 527 25,300 -1,000 Descending FlightAware UK
Thu 06:22:28 PM 52.5804 -4.5591 301° West 462 532 25,000 -1,000 Descending FlightAware UK
Thu 06:22:46 PM 52.6003 -4.6137 301° West 460 529 24,700 -1,000 Descending FlightAware UK
Thu 06:23:04 PM 52.6200 -4.6683 301° West 460 529 24,400 -1,000 Descending FlightAware UK
Thu 06:23:22 PM 52.6399 -4.7226 301° West 460 529 24,100 -1,000 Descending FlightAware UK
Thu 06:23:40 PM 52.6618 -4.7746 305° West 462 532 23,800 -833 Descending FlightAware UK
Thu 06:23:58 PM 52.6853 -4.8244 308° West 460 529 23,600 -833 Descending FlightAware UK
Thu 06:24:16 PM 52.7108 -4.8712 312° West 464 534 23,300 -1,000 Descending FlightAware UK
Thu 06:24:34 PM 52.7363 -4.9158 313° West 460 529 23,000 -1,000 Descending FlightAware UK
Thu 06:24:52 PM 52.7624 -4.9603 314° West 458 527 22,700 -1,000 Descending FlightAware UK
Thu 06:25:10 PM 52.7884 -5.0054 314° West 462 532 22,400 -1,000 Descending FlightAware UK
Thu 06:25:28 PM 52.8145 -5.0510 313° West 462 532 22,100 -1,000 Descending FlightAware UK
Thu 06:25:46 PM 52.8404 -5.0976 313° West 464 534 21,800 -1,000 Descending FlightAware UK
Thu 06:26:04 PM 52.8661 -5.1442 312° West 462 532 21,500 -1,000 Descending FlightAware UK
Thu 06:26:22 PM 52.8919 -5.1906 313° West 464 534 21,200 -1,000 Descending FlightAware UK
Thu 06:26:40 PM 52.9176 -5.2369 313° West 458 527 20,900 -1,500 Descending FlightAware UK
Thu 06:26:58 PM 52.9432 -5.2829 313° West 444 511 20,300 2,000 Descending FlightAware UK
Thu 06:27:07 PM 52.9450 -5.2870 313° West 440 506 21,800 -1,750 Climbing FlightAware ADS-B
Thu 06:27:22 PM 52.9761 -5.3427 313° West 436 502 19,600 -5,091 Descending FlightAware UK
Thu 06:27:40 PM 53.0012 -5.3883 312° West 434 499 19,000 -2,167 Descending FlightAware UK
Thu 06:27:58 PM 53.0261 -5.4339 312° West 430 495 18,300 -2,167 Descending FlightAware UK
Thu 06:28:16 PM 53.0511 -5.4791 313° West 426 490 17,700 3,789 Descending FlightAware UK
Thu 06:28:17 PM 53.0420 -5.4640 313° West 438 504 19,500 -2,333 Climbing FlightAware ADS-B
Thu 06:28:34 PM 53.0781 -5.5203 313° West 420 483 17,000 -5,314 Descending FlightAware UK
Thu 06:28:52 PM 53.1072 -5.5581 322° Northwest 418 481 16,400 2,348 Descending FlightAware UK
Thu 06:28:57 PM 53.1050 -5.5560 322° Northwest 444 511 17,900 -2,500 Climbing FlightAware ADS-B
Thu 06:29:16 PM 53.1464 -5.6070 322° Northwest 408 470 15,400 -5,027 Descending FlightAware UK
Thu 06:29:34 PM 53.1748 -5.6424 323° Northwest 400 460 14,800 1,846 Descending FlightAware UK
Thu 06:29:42 PM 53.1770 -5.6450 323° Northwest 421 484 16,200 -2,250 Climbing FlightAware ADS-B
Thu 06:29:58 PM 53.2116 -5.6884 323° Northwest 388 447 13,900 -5,294 Descending FlightAware UK
Thu 06:30:16 PM 53.2381 -5.7226 322° Northwest 382 440 13,200 2,250 Descending FlightAware UK
Thu 06:30:22 PM 53.2380 -5.7220 322° Northwest 395 455 14,800 -1,250 Climbing FlightAware ADS-B
Thu 06:30:40 PM 53.2724 -5.7680 322° Northwest 364 419 12,700 -5,000 Descending FlightAware UK
Thu 06:30:58 PM 53.2971 -5.8003 322° Northwest 356 410 11,800 1,111 Descending FlightAware UK
Thu 06:31:07 PM 53.3010 -5.8050 322° Northwest 369 425 13,200 -3,000 Climbing FlightAware ADS-B
Thu 06:31:22 PM 53.3294 -5.8423 322° Northwest 350 403 10,600 -6,182 Descending FlightAware UK
Thu 06:31:40 PM 53.3537 -5.8736 322° Northwest 350 403 9,800 1,920 Descending FlightAware UK
Thu 06:31:47 PM 53.3550 -5.8750 322° Northwest 367 422 11,400 -1,750 Climbing FlightAware ADS-B
Thu 06:32:04 PM 53.3865 -5.9125 322° Northwest 342 394 9,100 -5,314 Descending FlightAware UK
Thu 06:32:22 PM 53.4121 -5.9371 330° Northwest 342 394 8,300 2,087 Descending FlightAware UK
Thu 06:32:27 PM 53.4110 -5.9360 330° Northwest 355 409 9,900 -2,000 Climbing FlightAware ADS-B
Thu 06:32:46 PM 53.4459 -5.9704 330° Northwest 338 389 7,500 -2,000 Descending FlightAware UK
Thu 06:32:57 PM 53.4540 -5.9780 330° Northwest 338 389 8,900 -2,200 Climbing FlightAware ADS-B
Thu 06:33:16 PM 53.4871 -6.0106 330° Northwest 330 380 6,400 -2,000 Descending FlightAware UK
Thu 06:33:27 PM 53.4960 -6.0190 330° Northwest 333 383 7,900 4,000 Climbing FlightAware ADS-B
Thu 06:33:37 PM 53.5060 -6.0290 329° Northwest 320 368 7,800 -4,800 Descending FlightAware ADS-B
Thu 06:33:52 PM 53.5334 -6.0559 329° Northwest 302 348 5,900 -1,000 Descending FlightAware UK
Thu 06:34:07 PM 53.5450 -6.0670 330° Northwest 298 343 7,300 -667 Climbing FlightAware ADS-B
Thu 06:34:10 PM 53.5550 -6.0770 330° Northwest 290 334 5,700 -7,200 Descending FlightAware UK
Thu 06:34:22 PM 53.5693 -6.0911 330° Northwest 282 325 5,500 2,889 Descending FlightAware UK
Thu 06:34:37 PM 53.5810 -6.1020 330° Northwest 284 327 7,000 -667 Climbing FlightAware ADS-B
Thu 06:34:40 PM 53.5895 -6.1106 330° Northwest 270 311 5,300 -7,200 Descending FlightAware UK
Thu 06:34:52 PM 53.6027 -6.1238 330° Northwest 262 302 5,200 2,889 Descending FlightAware UK
Thu 06:35:07 PM 53.6130 -6.1340 330° Northwest 265 305 6,600 -600 Climbing FlightAware ADS-B
Thu 06:35:22 PM 53.6339 -6.1544 330° Northwest 246 283 4,900 -400 Descending FlightAware UK
Thu 06:35:22 PM 53.6280 -6.1490 330° Northwest 250 288 6,500 -333 Climbing FlightAware ADS-B
Thu 06:35:40 PM 53.6516 -6.1723 330° Northwest 238 274 4,800 -480 Descending FlightAware UK
Thu 06:35:47 PM 53.6540 -6.1740 330° Northwest 241 277 6,300 -500 Climbing FlightAware ADS-B
Thu 06:36:04 PM 53.6740 -6.1951 330° Northwest 1 1 4,600 -400 Descending FlightAware UK
Thu 06:36:17 PM 53.6810 -6.2010 330° Northwest 226 260 6,100 -600 Climbing FlightAware ADS-B
Thu 06:36:34 PM 53.6997 -6.2262 330° Northwest 1 1 4,300 -720 Descending FlightAware UK
Thu 06:36:42 PM 53.7010 -6.2330 330° Northwest 231 266 5,800 3,652 Climbing FlightAware ADS-B
Thu 06:36:57 PM 53.7040 -6.2590 330° Northwest 236 272 5,700 -6,375 Descending FlightAware ADS-B
Thu 06:36:58 PM 53.7023 -6.2699 330° Northwest 1 1 4,100 -6,316 Descending FlightAware UK
Thu 06:37:16 PM 53.6948 -6.3006 330° Northwest 1 1 3,700 2,750 Descending FlightAware UK
Thu 06:37:22 PM 53.6950 -6.3030 330° Northwest 232 267 5,200 -1,500 Climbing FlightAware ADS-B
Thu 06:37:40 PM 53.6845 -6.3411 330° Northwest 1 1 3,100 -1,500 Descending FlightAware UK
Thu 06:37:42 PM 53.6860 -6.3360 330° Northwest 232 267 4,700 7,000 Climbing FlightAware ADS-B
Thu 06:37:52 PM 53.6800 -6.3530 239° Southwest 229 264 4,500 -720 Descending FlightAware ADS-B
Thu 06:38:07 PM 53.6680 -6.3680 239° Southwest 214 246 4,400 -5,667 Descending FlightAware ADS-B
Thu 06:38:10 PM 53.6601 -6.3709 239° Southwest 1 1 2,800 -6,800 Descending FlightAware UK
Thu 06:38:22 PM 53.6487 -6.3765 239° Southwest 1 1 2,700 7,000 Descending FlightAware UK
Thu 06:38:22 PM 53.6530 -6.3730 239° Southwest 210 242 4,200 -667 Climbing FlightAware ADS-B
Thu 06:38:40 PM 53.6321 -6.3812 239° Southwest 1 1 2,500  Descending FlightAware UK
Thu 06:38:47 PM 53.6300 -6.3780 239° Southwest 183 211 4,200 250 Climbing FlightAware ADS-B
Thu 06:39:04 PM 53.6113 -6.3830 239° Southwest 1 1 2,600 -300 Descending FlightAware UK
Thu 06:39:07 PM 53.6130 -6.3820 239° Southwest 181 208 4,100 -667 Climbing FlightAware ADS-B
Thu 06:39:22 PM 53.5961 -6.3831 239° Southwest 1 1 2,400 -720 Descending FlightAware UK
Thu 06:39:32 PM 53.5910 -6.3740 239° Southwest 177 204 3,800 -800 Climbing FlightAware ADS-B
Thu 06:39:52 PM 53.5725 -6.3605 239° Southwest 1 1 2,000 -800 Descending FlightAware UK
Thu 06:40:02 PM 53.5680 -6.3580 239° Southwest 176 203 3,400 -1,200 Climbing FlightAware ADS-B
Thu 06:40:22 PM 53.5490 -6.3431 239° Southwest 1 1 1,400 -1,200 Descending FlightAware UK
Thu 06:40:27 PM 53.5490 -6.3430 239° Southwest 175 201 2,900 1,714 Climbing FlightAware ADS-B
Thu 06:40:57 PM 53.5260 -6.3260 156° South 177 204 2,400 -873 Descending FlightAware ADS-B
Thu 06:41:22 PM 53.5060 -6.3120 157° South 163 188 2,100 -873 Descending FlightAware ADS-B
Thu 06:41:52 PM 53.4870 -6.2980 156° South 139 160 1,600 -900 Descending FlightAware ADS-B
Thu 06:42:22 PM 53.4690 -6.2860 158° South 124 143 1,200 -655 Descending FlightAware ADS-B
Thu 06:42:47 PM 53.4560 -6.2760 155° Southeast 122 140 1,000 -369 Descending FlightAware ADS-B
Thu 06:43:27 PM 53.4380 -6.2620 155° Southeast 122 140 800 -300 Descending FlightAware ADS-B
Thu 06:46:00 PM 53.4213 -6.2701 196° South  Level Estimated

Login

Don't have an account? Register now (free) for customized features, flight alerts, and more!